STARLINK-1016 (44722 NORAD) Tracking and Keplerian Element Data

This shows tracking and keplerian element data for the satellite.

Feedback or suggestion? Click here.




ElementValue
Catalog44722
NameSTARLINK-1016
Epoch Orbit1066
Epoch Day18.25002315
Epoch Year2020
RAAN194.2005
Inclination53.0068
Eccentricity0.0003252
Argument of Perigee39.886
Mean Anonmoly350.1843
Mean Motion15.73175618
Decay Rate0.00243282
L11 44722U 19074K 20018.25002315 .00243282 00000-0 16893-2 0 9999
L22 44722 53.0068 194.2005 0003252 39.8860 350.1843 15.73175618 10661

Live tracking and technical data element details for STARLINK-1016 (NORAD 44722). STARLINK-1016 can be tracked NOW for your location showing map with azimuth and elevation plus other details from your city location.

Track the satellite on the map from your city or location and see movement details for azimuth, elevation, latitude, longitude, range, height, and movement on the map or in text.







IsCatalogInMostPopularTable: catalog: 44722, numindb: 8
Update: records affected: 1



GetName: 44722 STARLINK-1016

Hit Count: updated at: Sat, 18 Jan 2020 18:34:51 GMT